Time,TemperatureF,DewpointF,PressureIn,WindDirection,WindDirectionDegrees,WindSpeedMPH,WindSpeedGustMPH,Humidity,HourlyPrecipIn,Conditions,Clouds,dailyrainin,SoftwareType,DateUTC
2013-02-24 00:00:00,43.2,42.4,29.78,West,270,0.0,2.0,97,0.00,,---,0.73,VWS V14.01,2013-02-24 05:00:00,
2013-02-24 00:05:00,43.2,42.4,29.78,West,270,0.0,1.0,97,0.00,,---,0.00,VWS V14.01,2013-02-24 05:05:00,
2013-02-24 00:10:00,43.2,42.4,29.77,West,270,0.0,1.0,97,0.00,,---,0.00,VWS V14.01,2013-02-24 05:10:00,
2013-02-24 00:15:00,43.2,42.7,29.77,West,270,0.0,1.0,98,0.00,,---,0.00,VWS V14.01,2013-02-24 05:15:00,
2013-02-24 00:20:00,43.2,42.7,29.76,West,270,0.0,1.0,98,0.00,,---,0.00,VWS V14.01,2013-02-24 05:20:00,
2013-02-24 00:25:00,43.2,42.7,29.76,West,270,0.0,1.0,98,0.00,,---,0.00,VWS V14.01,2013-02-24 05:25:00,
2013-02-24 00:30:00,43.2,42.7,29.77,West,270,0.0,1.0,98,0.00,,---,0.00,VWS V14.01,2013-02-24 05:30:00,
2013-02-24 00:35:00,43.2,42.7,29.77,West,270,0.0,0.0,98,0.00,,---,0.00,VWS V14.01,2013-02-24 05:35:00,
2013-02-24 00:40:00,43.2,42.7,29.77,West,270,0.0,1.0,98,0.00,,---,0.00,VWS V14.01,2013-02-24 05:40:00,
2013-02-24 00:45:00,43.2,42.7,29.78,West,270,0.0,2.0,98,0.00,,---,0.00,VWS V14.01,2013-02-24 05:45:00,
2013-02-24 00:50:00,43.2,42.7,29.78,West,270,0.0,2.0,98,0.00,,---,0.00,VWS V14.01,2013-02-24 05:50:00,
2013-02-24 00:55:00,43.2,42.7,29.78,West,270,0.0,2.0,98,0.00,,---,0.00,VWS V14.01,2013-02-24 05:55:00,
2013-02-24 01:00:00,43.2,42.7,29.78,West,270,0.0,2.0,98,0.00,,---,0.00,VWS V14.01,2013-02-24 06:00:00,
2013-02-24 01:05:00,43.2,42.7,29.77,West,270,1.0,1.0,98,0.00,,---,0.00,VWS V14.01,2013-02-24 06:05:00,
2013-02-24 01:10:00,43.2,42.7,29.77,West,270,1.0,1.0,98,0.00,,---,0.00,VWS V14.01,2013-02-24 06:10:00,
2013-02-24 01:15:00,43.2,42.7,29.78,West,270,0.0,2.0,98,0.00,,---,0.00,VWS V14.01,2013-02-24 06:15:00,
2013-02-24 01:20:00,43.2,42.7,29.77,West,270,0.0,2.0,98,0.00,,---,0.00,VWS V14.01,2013-02-24 06:20:00,
2013-02-24 01:25:00,43.2,42.7,29.77,West,270,0.0,2.0,98,0.00,,---,0.00,VWS V14.01,2013-02-24 06:25:00,
2013-02-24 01:30:00,43.2,42.7,29.77,West,270,0.0,2.0,98,0.00,,---,0.00,VWS V14.01,2013-02-24 06:30:00,
2013-02-24 01:35:00,43.2,42.7,29.77,West,270,0.0,1.0,98,0.00,,---,0.00,VWS V14.01,2013-02-24 06:35:00,
2013-02-24 01:40:00,43.2,42.7,29.77,West,270,0.0,1.0,98,0.00,,---,0.00,VWS V14.01,2013-02-24 06:40:00,
2013-02-24 01:45:00,43.2,42.7,29.76,West,270,0.0,1.0,98,0.00,,---,0.00,VWS V14.01,2013-02-24 06:45:00,
2013-02-24 01:50:00,43.2,42.7,29.76,West,270,0.0,1.0,98,0.00,,---,0.00,VWS V14.01,2013-02-24 06:50:00,
2013-02-24 01:55:00,43.2,42.7,29.76,West,270,0.0,1.0,98,0.01,,---,0.01,VWS V14.01,2013-02-24 06:55:00,
2013-02-24 02:00:00,43.2,42.7,29.75,West,270,0.0,1.0,98,0.01,,---,0.01,VWS V14.01,2013-02-24 07:00:00,
2013-02-24 02:05:00,43.3,42.5,29.75,West,270,0.0,0.0,97,0.01,,---,0.01,VWS V14.01,2013-02-24 07:05:00,
2013-02-24 02:10:00,43.2,42.4,29.75,West,270,0.0,1.0,97,0.01,,---,0.01,VWS V14.01,2013-02-24 07:10:00,
2013-02-24 02:15:00,43.3,42.5,29.75,West,270,0.0,1.0,97,0.01,,---,0.01,VWS V14.01,2013-02-24 07:15:00,
2013-02-24 02:20:00,43.3,42.8,29.75,West,270,0.0,1.0,98,0.01,,---,0.01,VWS V14.01,2013-02-24 07:20:00,
2013-02-24 02:25:00,43.3,42.8,29.75,West,270,0.0,1.0,98,0.01,,---,0.01,VWS V14.01,2013-02-24 07:25:00,
2013-02-24 02:30:00,43.3,42.8,29.75,West,270,0.0,1.0,98,0.01,,---,0.01,VWS V14.01,2013-02-24 07:30:00,
2013-02-24 02:35:00,43.3,42.8,29.75,West,270,0.0,0.0,98,0.01,,---,0.01,VWS V14.01,2013-02-24 07:35:00,
2013-02-24 02:40:00,43.3,42.8,29.74,West,270,0.0,0.0,98,0.01,,---,0.01,VWS V14.01,2013-02-24 07:40:00,
2013-02-24 02:45:00,43.4,42.9,29.75,West,270,0.0,1.0,98,0.01,,---,0.01,VWS V14.01,2013-02-24 07:45:00,
2013-02-24 02:50:00,43.4,42.9,29.73,West,270,0.0,1.0,98,0.01,,---,0.01,VWS V14.01,2013-02-24 07:50:00,
2013-02-24 02:55:00,43.4,42.9,29.74,West,270,0.0,1.0,98,0.01,,---,0.01,VWS V14.01,2013-02-24 07:55:00,
2013-02-24 03:00:00,43.4,42.9,29.75,West,270,0.0,1.0,98,0.01,,---,0.01,VWS V14.01,2013-02-24 08:00:00,
2013-02-24 03:05:00,43.4,42.9,29.75,West,270,0.0,1.0,98,0.01,,---,0.02,VWS V14.01,2013-02-24 08:05:00,
2013-02-24 03:10:00,43.4,42.9,29.74,West,270,0.0,1.0,98,0.02,,---,0.03,VWS V14.01,2013-02-24 08:10:00,
2013-02-24 03:15:00,43.4,42.9,29.74,West,270,0.0,1.0,98,0.03,,---,0.04,VWS V14.01,2013-02-24 08:15:00,
2013-02-24 03:20:00,43.4,42.9,29.74,West,270,0.0,3.0,98,0.03,,---,0.04,VWS V14.01,2013-02-24 08:20:00,
2013-02-24 03:25:00,43.5,43.0,29.74,West,270,1.0,3.0,98,0.04,,---,0.05,VWS V14.01,2013-02-24 08:25:00,
2013-02-24 03:30:00,43.5,43.0,29.75,West,261,1.0,5.0,98,0.05,,---,0.06,VWS V14.01,2013-02-24 08:30:00,
2013-02-24 03:35:00,43.6,43.1,29.75,West,265,0.0,2.0,98,0.05,,---,0.06,VWS V14.01,2013-02-24 08:35:00,
2013-02-24 03:40:00,43.6,43.1,29.75,SSW,207,0.0,2.0,98,0.05,,---,0.06,VWS V14.01,2013-02-24 08:40:00,
2013-02-24 03:45:00,43.6,43.1,29.74,SSW,207,0.0,2.0,98,0.05,,---,0.06,VWS V14.01,2013-02-24 08:45:00,
2013-02-24 03:50:00,43.7,43.2,29.74,West,278,1.0,4.0,98,0.05,,---,0.06,VWS V14.01,2013-02-24 08:50:00,
2013-02-24 03:55:00,43.8,43.3,29.73,WSW,242,0.0,4.0,98,0.05,,---,0.06,VWS V14.01,2013-02-24 08:55:00,
2013-02-24 04:00:00,43.8,43.3,29.74,WSW,242,0.0,4.0,98,0.05,,---,0.06,VWS V14.01,2013-02-24 09:00:00,
2013-02-24 04:05:00,43.9,43.4,29.74,WSW,242,0.0,1.0,98,0.05,,---,0.06,VWS V14.01,2013-02-24 09:05:00,
2013-02-24 04:10:00,44.0,43.5,29.73,WSW,242,0.0,2.0,98,0.05,,---,0.06,VWS V14.01,2013-02-24 09:10:00,
2013-02-24 04:15:00,44.0,43.5,29.74,WSW,242,0.0,2.0,98,0.05,,---,0.06,VWS V14.01,2013-02-24 09:15:00,
2013-02-24 04:20:00,44.0,43.5,29.73,WSW,242,0.0,2.0,98,0.05,,---,0.06,VWS V14.01,2013-02-24 09:20:00,
2013-02-24 04:25:00,44.1,43.6,29.73,WSW,242,0.0,2.0,98,0.05,,---,0.06,VWS V14.01,2013-02-24 09:25:00,
2013-02-24 04:30:00,44.1,43.6,29.74,WSW,242,2.0,2.0,98,0.05,,---,0.06,VWS V14.01,2013-02-24 09:30:00,
2013-02-24 04:35:00,44.1,43.6,29.74,WSW,242,0.0,1.0,98,0.00,,---,0.06,VWS V14.01,2013-02-24 09:35:00,
2013-02-24 04:40:00,44.1,43.6,29.74,WNW,302,0.0,2.0,98,0.00,,---,0.06,VWS V14.01,2013-02-24 09:40:00,
2013-02-24 04:45:00,44.2,43.7,29.74,WNW,302,1.0,2.0,98,0.00,,---,0.06,VWS V14.01,2013-02-24 09:45:00,
2013-02-24 04:50:00,44.2,43.7,29.74,WNW,302,0.0,2.0,98,0.00,,---,0.06,VWS V14.01,2013-02-24 09:50:00,
2013-02-24 04:55:00,44.2,43.7,29.74,WNW,302,0.0,2.0,98,0.00,,---,0.06,VWS V14.01,2013-02-24 09:55:00,
2013-02-24 05:00:00,44.2,43.7,29.74,WNW,302,0.0,2.0,98,0.00,,---,0.06,VWS V14.01,2013-02-24 10:00:00,
2013-02-24 05:05:00,44.2,43.7,29.74,South,169,1.0,1.0,98,0.00,,---,0.06,VWS V14.01,2013-02-24 10:05:00,
2013-02-24 05:10:00,44.2,43.7,29.75,SW,236,0.0,4.0,98,0.00,,---,0.06,VWS V14.01,2013-02-24 10:10:00,
2013-02-24 05:15:00,44.2,43.7,29.75,WNW,284,0.0,4.0,98,0.00,,---,0.06,VWS V14.01,2013-02-24 10:15:00,
2013-02-24 05:20:00,44.2,43.7,29.75,WNW,284,0.0,4.0,98,0.00,,---,0.06,VWS V14.01,2013-02-24 10:20:00,
2013-02-24 05:25:00,44.2,43.7,29.75,WNW,284,0.0,4.0,98,0.00,,---,0.06,VWS V14.01,2013-02-24 10:25:00,
2013-02-24 05:30:00,44.2,43.7,29.76,WNW,284,1.0,4.0,98,0.00,,---,0.06,VWS V14.01,2013-02-24 10:30:00,
2013-02-24 05:35:00,44.2,43.7,29.76,WSW,252,0.0,5.0,98,0.00,,---,0.06,VWS V14.01,2013-02-24 10:35:00,
2013-02-24 05:40:00,44.2,43.7,29.76,WNW,302,1.0,6.0,98,0.00,,---,0.06,VWS V14.01,2013-02-24 10:40:00,
2013-02-24 05:45:00,44.2,43.7,29.77,WSW,243,2.0,7.0,98,0.00,,---,0.06,VWS V14.01,2013-02-24 10:45:00,
2013-02-24 05:50:00,44.2,43.7,29.77,WSW,252,1.0,7.0,98,0.00,,---,0.06,VWS V14.01,2013-02-24 10:50:00,
2013-02-24 05:55:00,44.2,43.7,29.77,West,266,0.0,7.0,98,0.00,,---,0.06,VWS V14.01,2013-02-24 10:55:00,
2013-02-24 06:00:00,44.2,43.7,29.77,West,266,0.0,7.0,98,0.00,,---,0.06,VWS V14.01,2013-02-24 11:00:00,
2013-02-24 06:05:00,44.2,43.7,29.77,West,266,0.0,2.0,98,0.00,,---,0.06,VWS V14.01,2013-02-24 11:05:00,
2013-02-24 06:10:00,44.1,43.6,29.77,West,271,0.0,3.0,98,0.00,,---,0.06,VWS V14.01,2013-02-24 11:10:00,
2013-02-24 06:15:00,44.0,43.5,29.77,West,271,0.0,3.0,98,0.00,,---,0.06,VWS V14.01,2013-02-24 11:15:00,
2013-02-24 06:20:00,43.9,43.4,29.77,West,271,0.0,3.0,98,0.00,,---,0.06,VWS V14.01,2013-02-24 11:20:00,
2013-02-24 06:25:00,43.8,43.3,29.77,West,271,0.0,3.0,98,0.00,,---,0.06,VWS V14.01,2013-02-24 11:25:00,
2013-02-24 06:30:00,43.8,43.3,29.77,West,271,0.0,3.0,98,0.00,,---,0.06,VWS V14.01,2013-02-24 11:30:00,
2013-02-24 06:35:00,43.7,43.2,29.78,West,271,0.0,0.0,98,0.00,,---,0.06,VWS V14.01,2013-02-24 11:35:00,
2013-02-24 06:40:00,43.6,43.1,29.78,West,271,0.0,2.0,98,0.00,,---,0.06,VWS V14.01,2013-02-24 11:40:00,
2013-02-24 06:45:00,43.6,43.1,29.78,West,261,0.0,3.0,98,0.00,,---,0.06,VWS V14.01,2013-02-24 11:45:00,
2013-02-24 06:50:00,43.6,43.1,29.79,WSW,248,2.0,5.0,98,0.00,,---,0.06,VWS V14.01,2013-02-24 11:50:00,
2013-02-24 06:55:00,43.6,43.1,29.79,WSW,253,0.0,5.0,98,0.00,,---,0.06,VWS V14.01,2013-02-24 11:55:00,
2013-02-24 07:00:00,43.6,43.1,29.79,WSW,253,0.0,5.0,98,0.00,,---,0.06,VWS V14.01,2013-02-24 12:00:00,
2013-02-24 07:05:00,43.6,43.1,29.79,WNW,288,2.0,2.0,98,0.00,,---,0.06,VWS V14.01,2013-02-24 12:05:00,
2013-02-24 07:10:00,43.6,43.1,29.80,West,281,0.0,3.0,98,0.00,,---,0.06,VWS V14.01,2013-02-24 12:10:00,
2013-02-24 07:15:00,43.6,43.1,29.80,West,281,0.0,3.0,98,0.00,,---,0.06,VWS V14.01,2013-02-24 12:15:00,
2013-02-24 07:20:00,43.6,43.1,29.80,West,281,0.0,3.0,98,0.00,,---,0.06,VWS V14.01,2013-02-24 12:20:00,
2013-02-24 07:25:00,43.6,43.1,29.80,WSW,250,0.0,3.0,98,0.00,,---,0.06,VWS V14.01,2013-02-24 12:25:00,
2013-02-24 07:30:00,43.6,43.1,29.80,WNW,297,2.0,5.0,98,0.00,,---,0.06,VWS V14.01,2013-02-24 12:30:00,
2013-02-24 07:35:00,43.6,43.1,29.81,NW,315,0.0,3.0,98,0.00,,---,0.06,VWS V14.01,2013-02-24 12:35:00,
2013-02-24 07:40:00,43.7,43.2,29.82,West,263,1.0,4.0,98,0.00,,---,0.06,VWS V14.01,2013-02-24 12:40:00,
2013-02-24 07:45:00,43.7,43.2,29.82,West,263,1.0,4.0,98,0.00,,---,0.06,VWS V14.01,2013-02-24 12:45:00,
2013-02-24 07:50:00,43.7,43.2,29.82,West,271,3.0,5.0,98,0.00,,---,0.06,VWS V14.01,2013-02-24 12:50:00,
2013-02-24 07:55:00,43.7,43.2,29.82,West,264,2.0,5.0,98,0.00,,---,0.06,VWS V14.01,2013-02-24 12:55:00,
2013-02-24 08:00:00,43.7,43.2,29.83,WNW,290,0.0,5.0,98,0.00,,---,0.06,VWS V14.01,2013-02-24 13:00:00,
2013-02-24 08:05:00,43.8,43.3,29.83,WNW,283,1.0,2.0,98,0.00,,---,0.06,VWS V14.01,2013-02-24 13:05:00,
2013-02-24 08:10:00,43.9,43.4,29.83,WNW,283,0.0,4.0,98,0.00,,---,0.06,VWS V14.01,2013-02-24 13:10:00,
2013-02-24 08:15:00,44.0,43.5,29.83,WNW,302,1.0,5.0,98,0.00,,---,0.06,VWS V14.01,2013-02-24 13:15:00,
2013-02-24 08:20:00,44.1,43.6,29.84,SSW,202,2.0,5.0,98,0.00,,---,0.06,VWS V14.01,2013-02-24 13:20:00,
2013-02-24 08:25:00,44.2,43.7,29.85,West,261,2.0,5.0,98,0.00,,---,0.06,VWS V14.01,2013-02-24 13:25:00,
2013-02-24 08:30:00,44.5,44.0,29.86,SSW,205,1.0,5.0,98,0.00,,---,0.06,VWS V14.01,2013-02-24 13:30:00,
2013-02-24 08:35:00,44.6,44.1,29.85,SSW,210,3.0,5.0,98,0.00,,---,0.06,VWS V14.01,2013-02-24 13:35:00,
2013-02-24 08:40:00,44.8,44.3,29.86,West,261,1.0,5.0,98,0.00,,---,0.06,VWS V14.01,2013-02-24 13:40:00,
2013-02-24 08:45:00,45.1,44.6,29.86,West,261,0.0,5.0,98,0.00,,---,0.06,VWS V14.01,2013-02-24 13:45:00,
2013-02-24 08:50:00,45.3,44.8,29.86,NW,321,0.0,5.0,98,0.00,,---,0.06,VWS V14.01,2013-02-24 13:50:00,
2013-02-24 08:55:00,45.4,44.9,29.86,West,269,3.0,5.0,98,0.00,,---,0.06,VWS V14.01,2013-02-24 13:55:00,
2013-02-24 09:00:00,45.6,45.1,29.86,WNW,292,1.0,5.0,98,0.00,,---,0.06,VWS V14.01,2013-02-24 14:00:00,
2013-02-24 09:05:00,45.9,45.4,29.86,WNW,292,0.0,2.0,98,0.00,,---,0.06,VWS V14.01,2013-02-24 14:05:00,
2013-02-24 09:10:00,46.2,45.7,29.86,West,261,2.0,3.0,98,0.00,,---,0.06,VWS V14.01,2013-02-24 14:10:00,
2013-02-24 09:15:00,46.7,46.2,29.85,WNW,285,0.0,4.0,98,0.00,,---,0.06,VWS V14.01,2013-02-24 14:15:00,
2013-02-24 09:20:00,47.0,46.2,29.86,West,263,4.0,7.0,97,0.00,,---,0.06,VWS V14.01,2013-02-24 14:20:00,
2013-02-24 09:25:00,47.3,46.2,29.87,WNW,302,0.0,7.0,96,0.00,,---,0.06,VWS V14.01,2013-02-24 14:25:00,
2013-02-24 09:30:00,47.7,46.3,29.86,WNW,293,0.0,7.0,95,0.00,,---,0.06,VWS V14.01,2013-02-24 14:30:00,
2013-02-24 09:35:00,48.1,46.5,29.86,WNW,293,0.0,1.0,94,0.00,,---,0.06,VWS V14.01,2013-02-24 14:35:00,
2013-02-24 09:40:00,48.4,46.2,29.86,NW,321,0.0,3.0,92,0.00,,---,0.06,VWS V14.01,2013-02-24 14:40:00,
2013-02-24 09:45:00,48.8,46.0,29.86,NNW,343,1.0,4.0,90,0.00,,---,0.06,VWS V14.01,2013-02-24 14:45:00,
2013-02-24 09:50:00,49.2,45.8,29.87,WNW,292,6.0,6.0,88,0.00,,---,0.06,VWS V14.01,2013-02-24 14:50:00,
2013-02-24 09:55:00,49.5,45.8,29.87,NNE,16,0.0,8.0,87,0.00,,---,0.06,VWS V14.01,2013-02-24 14:55:00,
2013-02-24 10:00:00,49.8,45.5,29.87,North,355,4.0,8.0,85,0.00,,---,0.06,VWS V14.01,2013-02-24 15:00:00,
2013-02-24 10:05:00,50.1,45.5,29.87,NNW,338,0.0,3.0,84,0.00,,---,0.06,VWS V14.01,2013-02-24 15:05:00,
2013-02-24 10:10:00,50.5,45.5,29.87,West,261,5.0,5.0,83,0.00,,---,0.06,VWS V14.01,2013-02-24 15:10:00,
2013-02-24 10:15:00,50.9,45.3,29.87,West,272,3.0,8.0,81,0.00,,---,0.06,VWS V14.01,2013-02-24 15:15:00,
2013-02-24 10:20:00,51.3,45.0,29.87,North,11,3.0,9.0,79,0.00,,---,0.06,VWS V14.01,2013-02-24 15:20:00,
2013-02-24 10:25:00,51.7,45.7,29.87,NW,323,3.0,9.0,80,0.00,,---,0.06,VWS V14.01,2013-02-24 15:25:00,
2013-02-24 10:30:00,52.0,45.7,29.86,WNW,300,6.0,9.0,79,0.00,,---,0.06,VWS V14.01,2013-02-24 15:30:00,
2013-02-24 10:35:00,52.3,45.7,29.87,WSW,237,2.0,6.0,78,0.00,,---,0.06,VWS V14.01,2013-02-24 15:35:00,
2013-02-24 10:40:00,52.6,45.6,29.87,WSW,242,5.0,6.0,77,0.00,,---,0.06,VWS V14.01,2013-02-24 15:40:00,
2013-02-24 10:45:00,52.8,45.8,29.87,WSW,250,4.0,6.0,77,0.00,,---,0.06,VWS V14.01,2013-02-24 15:45:00,
2013-02-24 10:50:00,53.1,44.7,29.87,NNW,333,2.0,6.0,73,0.00,,---,0.06,VWS V14.01,2013-02-24 15:50:00,
2013-02-24 10:55:00,53.2,44.8,29.87,WNW,294,0.0,6.0,73,0.00,,---,0.06,VWS V14.01,2013-02-24 15:55:00,
2013-02-24 11:00:00,53.4,45.0,29.87,WSW,252,3.0,6.0,73,0.00,,---,0.06,VWS V14.01,2013-02-24 16:00:00,
2013-02-24 11:05:00,53.6,44.4,29.87,SSW,202,1.0,3.0,71,0.00,,---,0.06,VWS V14.01,2013-02-24 16:05:00,
2013-02-24 11:10:00,53.8,44.3,29.87,NW,313,3.0,8.0,70,0.00,,---,0.06,VWS V14.01,2013-02-24 16:10:00,
2013-02-24 11:15:00,54.0,44.5,29.87,West,277,2.0,8.0,70,0.00,,---,0.06,VWS V14.01,2013-02-24 16:15:00,
2013-02-24 11:20:00,54.2,43.9,29.87,WSW,246,2.0,8.0,68,0.00,,---,0.06,VWS V14.01,2013-02-24 16:20:00,
2013-02-24 11:25:00,54.6,44.3,29.87,North,360,3.0,8.0,68,0.00,,---,0.06,VWS V14.01,2013-02-24 16:25:00,
2013-02-24 11:30:00,55.0,44.3,29.87,North,5,2.0,8.0,67,0.00,,---,0.06,VWS V14.01,2013-02-24 16:30:00,
2013-02-24 11:35:00,55.2,43.7,29.87,WSW,245,0.0,5.0,65,0.00,,---,0.06,VWS V14.01,2013-02-24 16:35:00,
2013-02-24 11:40:00,55.6,45.2,29.86,NNE,18,3.0,5.0,68,0.00,,---,0.06,VWS V14.01,2013-02-24 16:40:00,
2013-02-24 11:45:00,55.9,44.7,29.86,West,262,0.0,5.0,66,0.00,,---,0.06,VWS V14.01,2013-02-24 16:45:00,
2013-02-24 11:50:00,56.1,44.1,29.87,NE,40,1.0,5.0,64,0.00,,---,0.06,VWS V14.01,2013-02-24 16:50:00,
2013-02-24 11:55:00,56.4,45.2,29.86,NW,307,2.0,5.0,66,0.00,,---,0.06,VWS V14.01,2013-02-24 16:55:00,
2013-02-24 12:00:00,56.6,45.0,29.86,West,275,0.0,5.0,65,0.00,,---,0.06,VWS V14.01,2013-02-24 17:00:00,
2013-02-24 12:05:00,56.8,44.3,29.86,North,5,2.0,7.0,63,0.00,,---,0.06,VWS V14.01,2013-02-24 17:05:00,
2013-02-24 12:10:00,56.9,45.7,29.86,WSW,246,2.0,7.0,66,0.00,,---,0.06,VWS V14.01,2013-02-24 17:10:00,
2013-02-24 12:15:00,57.1,44.2,29.86,NNW,344,1.0,7.0,62,0.00,,---,0.06,VWS V14.01,2013-02-24 17:15:00,
2013-02-24 12:20:00,57.3,45.2,29.86,NNW,340,2.0,7.0,64,0.00,,---,0.06,VWS V14.01,2013-02-24 17:20:00,
2013-02-24 12:25:00,57.6,45.1,29.85,NNE,30,3.0,7.0,63,0.00,,---,0.06,VWS V14.01,2013-02-24 17:25:00,
2013-02-24 12:30:00,57.8,44.5,29.85,WNW,302,2.0,7.0,61,0.00,,---,0.06,VWS V14.01,2013-02-24 17:30:00,
2013-02-24 12:35:00,58.0,44.6,29.85,North,355,3.0,4.0,61,0.00,,---,0.06,VWS V14.01,2013-02-24 17:35:00,
2013-02-24 12:40:00,58.2,44.0,29.85,WSW,237,0.0,6.0,59,0.00,,---,0.06,VWS V14.01,2013-02-24 17:40:00,
2013-02-24 12:45:00,58.4,45.5,29.85,WNW,287,3.0,6.0,62,0.00,,---,0.06,VWS V14.01,2013-02-24 17:45:00,
2013-02-24 12:50:00,58.5,44.7,29.85,NW,305,3.0,9.0,60,0.00,,---,0.06,VWS V14.01,2013-02-24 17:50:00,
2013-02-24 12:55:00,58.6,43.9,29.84,West,276,3.0,9.0,58,0.00,,---,0.06,VWS V14.01,2013-02-24 17:55:00,
2013-02-24 13:00:00,58.7,44.4,29.84,WNW,292,2.0,9.0,59,0.00,,---,0.06,VWS V14.01,2013-02-24 18:00:00,
2013-02-24 13:05:00,58.8,44.1,29.84,West,267,3.0,7.0,58,0.00,,---,0.06,VWS V14.01,2013-02-24 18:05:00,
2013-02-24 13:10:00,59.0,45.2,29.83,NW,311,0.0,7.0,60,0.00,,---,0.06,VWS V14.01,2013-02-24 18:10:00,
2013-02-24 13:15:00,59.2,44.5,29.83,SW,225,4.0,7.0,58,0.00,,---,0.06,VWS V14.01,2013-02-24 18:15:00,
2013-02-24 13:20:00,59.4,44.2,29.83,WNW,284,3.0,7.0,57,0.00,,---,0.06,VWS V14.01,2013-02-24 18:20:00,
2013-02-24 13:25:00,59.5,43.8,29.83,NNW,344,3.0,7.0,56,0.00,,---,0.06,VWS V14.01,2013-02-24 18:25:00,
2013-02-24 13:30:00,59.7,44.9,29.83,SSW,205,4.0,7.0,58,0.00,,---,0.06,VWS V14.01,2013-02-24 18:30:00,
2013-02-24 13:35:00,60.0,44.7,29.83,NNW,342,3.0,6.0,57,0.00,,---,0.06,VWS V14.01,2013-02-24 18:35:00,
2013-02-24 13:40:00,60.2,44.9,29.83,North,355,1.0,6.0,57,0.00,,---,0.06,VWS V14.01,2013-02-24 18:40:00,
2013-02-24 13:45:00,60.4,43.7,29.82,NW,309,3.0,6.0,54,0.00,,---,0.06,VWS V14.01,2013-02-24 18:45:00,
2013-02-24 13:50:00,60.6,42.4,29.82,West,275,2.0,6.0,51,0.00,,---,0.06,VWS V14.01,2013-02-24 18:50:00,
2013-02-24 13:55:00,60.8,42.6,29.82,SW,215,6.0,6.0,51,0.00,,---,0.06,VWS V14.01,2013-02-24 18:55:00,
2013-02-24 14:00:00,61.0,41.7,29.82,NNW,348,2.0,9.0,49,0.00,,---,0.06,VWS V14.01,2013-02-24 19:00:00,
2013-02-24 14:05:00,61.0,41.2,29.82,WSW,248,4.0,10.0,48,0.00,,---,0.06,VWS V14.01,2013-02-24 19:05:00,
2013-02-24 14:10:00,60.9,40.5,29.82,North,355,2.0,10.0,47,0.00,,---,0.06,VWS V14.01,2013-02-24 19:10:00,
2013-02-24 14:15:00,61.0,42.8,29.82,NNE,17,2.0,10.0,51,0.00,,---,0.06,VWS V14.01,2013-02-24 19:15:00,
2013-02-24 14:20:00,61.2,41.4,29.81,NW,319,1.0,10.0,48,0.00,,---,0.06,VWS V14.01,2013-02-24 19:20:00,
2013-02-24 14:25:00,61.4,41.0,29.82,SSW,207,4.0,10.0,47,0.00,,---,0.06,VWS V14.01,2013-02-24 19:25:00,
2013-02-24 14:30:00,61.6,40.6,29.82,WSW,239,5.0,10.0,46,0.00,,---,0.06,VWS V14.01,2013-02-24 19:30:00,
2013-02-24 14:35:00,61.7,41.8,29.82,NNE,25,2.0,5.0,48,0.00,,---,0.06,VWS V14.01,2013-02-24 19:35:00,
2013-02-24 14:40:00,61.9,40.9,29.82,NW,306,1.0,6.0,46,0.00,,---,0.06,VWS V14.01,2013-02-24 19:40:00,
2013-02-24 14:45:00,62.0,41.6,29.81,WNW,294,0.0,6.0,47,0.00,,---,0.06,VWS V14.01,2013-02-24 19:45:00,
2013-02-24 14:50:00,62.2,40.6,29.81,WNW,284,0.0,6.0,45,0.00,,---,0.06,VWS V14.01,2013-02-24 19:50:00,
2013-02-24 14:55:00,62.4,41.4,29.81,SSW,211,4.0,6.0,46,0.00,,---,0.06,VWS V14.01,2013-02-24 19:55:00,
2013-02-24 15:00:00,62.6,41.0,29.81,SW,227,4.0,6.0,45,0.00,,---,0.06,VWS V14.01,2013-02-24 20:00:00,
2013-02-24 15:05:00,62.7,39.3,29.82,North,355,3.0,8.0,42,0.00,,---,0.06,VWS V14.01,2013-02-24 20:05:00,
2013-02-24 15:10:00,62.6,36.7,29.81,WSW,254,4.0,8.0,38,0.00,,---,0.06,VWS V14.01,2013-02-24 20:10:00,
2013-02-24 15:15:00,62.6,36.7,29.82,West,277,2.0,11.0,38,0.00,,---,0.06,VWS V14.01,2013-02-24 20:15:00,
2013-02-24 15:20:00,62.6,36.7,29.82,NNE,13,2.0,11.0,38,0.00,,---,0.06,VWS V14.01,2013-02-24 20:20:00,
2013-02-24 15:25:00,62.6,38.0,29.82,WNW,284,2.0,11.0,40,0.00,,---,0.06,VWS V14.01,2013-02-24 20:25:00,
2013-02-24 15:30:00,62.7,36.8,29.81,West,269,0.0,11.0,38,0.00,,---,0.06,VWS V14.01,2013-02-24 20:30:00,
2013-02-24 15:35:00,62.8,36.8,29.82,WNW,288,6.0,6.0,38,0.00,,---,0.06,VWS V14.01,2013-02-24 20:35:00,
2013-02-24 15:40:00,62.9,36.2,29.81,WSW,244,3.0,6.0,37,0.00,,---,0.06,VWS V14.01,2013-02-24 20:40:00,
2013-02-24 15:45:00,63.0,35.7,29.81,West,261,5.0,9.0,36,0.00,,---,0.06,VWS V14.01,2013-02-24 20:45:00,
2013-02-24 15:50:00,63.1,35.7,29.82,WNW,297,1.0,9.0,36,0.00,,---,0.06,VWS V14.01,2013-02-24 20:50:00,
2013-02-24 15:55:00,63.1,34.3,29.82,WNW,294,3.0,9.0,34,0.00,,---,0.06,VWS V14.01,2013-02-24 20:55:00,
2013-02-24 16:00:00,63.0,33.5,29.82,WSW,237,1.0,12.0,33,0.00,,---,0.06,VWS V14.01,2013-02-24 21:00:00,
2013-02-24 16:05:00,62.9,33.4,29.82,WNW,296,4.0,11.0,33,0.00,,---,0.06,VWS V14.01,2013-02-24 21:05:00,
2013-02-24 16:10:00,62.7,34.0,29.82,NW,309,0.0,11.0,34,0.00,,---,0.06,VWS V14.01,2013-02-24 21:10:00,
2013-02-24 16:15:00,62.6,33.9,29.82,North,5,1.0,11.0,34,0.00,,---,0.06,VWS V14.01,2013-02-24 21:15:00,
2013-02-24 16:19:00,62.6,33.9,29.82,NNW,346,3.0,11.0,34,0.00,,---,0.06,VWS V14.01,2013-02-24 21:19:00,
2013-02-24 16:24:00,62.5,33.0,29.82,WSW,249,2.0,11.0,33,0.00,,---,0.06,VWS V14.01,2013-02-24 21:24:00,
2013-02-24 16:29:00,62.4,32.9,29.82,North,5,2.0,11.0,33,0.00,,---,0.06,VWS V14.01,2013-02-24 21:29:00,
2013-02-24 16:30:00,62.5,34.5,29.82,North,355,0.0,11.0,35,0.00,,---,0.06,VWS V14.01,2013-02-24 21:30:00,
2013-02-24 16:34:00,62.4,33.7,29.83,East,89,1.0,3.0,34,0.00,,---,0.06,VWS V14.01,2013-02-24 21:34:00,
2013-02-24 16:39:00,62.5,34.5,29.83,WSW,254,1.0,3.0,35,0.00,,---,0.06,VWS V14.01,2013-02-24 21:39:00,
2013-02-24 16:44:00,62.5,33.8,29.83,North,355,0.0,5.0,34,0.00,,---,0.06,VWS V14.01,2013-02-24 21:44:00,
2013-02-24 16:49:00,62.4,33.7,29.83,West,280,0.0,6.0,34,0.00,,---,0.06,VWS V14.01,2013-02-24 21:49:00,
2013-02-24 16:54:00,62.3,33.6,29.83,WSW,253,1.0,6.0,34,0.00,,---,0.06,VWS V14.01,2013-02-24 21:54:00,
2013-02-24 16:59:00,62.3,33.6,29.83,WSW,254,3.0,6.0,34,0.00,,---,0.06,VWS V14.01,2013-02-24 21:59:00,
2013-02-24 17:00:00,62.3,33.6,29.83,WSW,250,2.0,6.0,34,0.00,,---,0.06,VWS V14.01,2013-02-24 22:00:00,
2013-02-24 17:04:00,62.2,34.2,29.83,West,275,1.0,2.0,35,0.00,,---,0.06,VWS V14.01,2013-02-24 22:04:00,
2013-02-24 17:09:00,62.1,33.4,29.83,North,355,1.0,10.0,34,0.00,,---,0.06,VWS V14.01,2013-02-24 22:09:00,
2013-02-24 17:14:00,62.1,34.8,29.83,West,274,0.0,10.0,36,0.00,,---,0.06,VWS V14.01,2013-02-24 22:14:00,
2013-02-24 17:19:00,62.0,34.1,29.83,WNW,286,0.0,10.0,35,0.00,,---,0.06,VWS V14.01,2013-02-24 22:19:00,
2013-02-24 17:24:00,61.8,34.6,29.84,WNW,286,0.0,10.0,36,0.00,,---,0.06,VWS V14.01,2013-02-24 22:24:00,
2013-02-24 17:29:00,61.7,35.2,29.84,WNW,286,1.0,10.0,37,0.00,,---,0.06,VWS V14.01,2013-02-24 22:29:00,
2013-02-24 17:30:00,61.6,34.4,29.84,WNW,286,0.0,10.0,36,0.00,,---,0.06,VWS V14.01,2013-02-24 22:30:00,
2013-02-24 17:34:00,61.4,34.2,29.84,WSW,256,0.0,4.0,36,0.00,,---,0.06,VWS V14.01,2013-02-24 22:34:00,
2013-02-24 17:39:00,61.2,35.4,29.84,WSW,256,0.0,4.0,38,0.00,,---,0.06,VWS V14.01,2013-02-24 22:39:00,
2013-02-24 17:44:00,60.9,37.1,29.84,WSW,256,0.0,4.0,41,0.00,,---,0.06,VWS V14.01,2013-02-24 22:44:00,
2013-02-24 17:49:00,60.6,39.2,29.85,WSW,256,0.0,4.0,45,0.00,,---,0.06,VWS V14.01,2013-02-24 22:49:00,
2013-02-24 17:54:00,60.2,39.9,29.85,WSW,256,0.0,4.0,47,0.00,,---,0.06,VWS V14.01,2013-02-24 22:54:00,
2013-02-24 17:59:00,59.5,41.4,29.85,WSW,256,0.0,4.0,51,0.00,,---,0.06,VWS V14.01,2013-02-24 22:59:00,
2013-02-24 18:00:00,59.4,41.3,29.85,WSW,256,0.0,4.0,51,0.00,,---,0.06,VWS V14.01,2013-02-24 23:00:00,
2013-02-24 18:04:00,58.9,40.8,29.85,WSW,256,0.0,0.0,51,0.00,,---,0.06,VWS V14.01,2013-02-24 23:04:00,
2013-02-24 18:09:00,58.1,41.6,29.86,WSW,256,0.0,0.0,54,0.00,,---,0.06,VWS V14.01,2013-02-24 23:09:00,
2013-02-24 18:14:00,57.2,41.2,29.86,WSW,256,0.0,0.0,55,0.00,,---,0.06,VWS V14.01,2013-02-24 23:14:00,
2013-02-24 18:19:00,56.3,42.2,29.86,WSW,256,0.0,0.0,59,0.00,,---,0.06,VWS V14.01,2013-02-24 23:19:00,
2013-02-24 18:24:00,55.4,41.8,29.86,WSW,256,0.0,0.0,60,0.00,,---,0.06,VWS V14.01,2013-02-24 23:24:00,
2013-02-24 18:29:00,54.7,42.0,29.86,WSW,256,0.0,0.0,62,0.00,,---,0.06,VWS V14.01,2013-02-24 23:29:00,
2013-02-24 18:30:00,54.4,42.1,29.86,WSW,256,0.0,0.0,63,0.00,,---,0.06,VWS V14.01,2013-02-24 23:30:00,
2013-02-24 18:34:00,53.8,41.5,29.86,WSW,256,0.0,0.0,63,0.00,,---,0.06,VWS V14.01,2013-02-24 23:34:00,
2013-02-24 18:39:00,52.9,41.9,29.86,WSW,256,0.0,0.0,66,0.00,,---,0.06,VWS V14.01,2013-02-24 23:39:00,
2013-02-24 18:44:00,52.0,41.0,29.86,WSW,256,0.0,0.0,66,0.00,,---,0.06,VWS V14.01,2013-02-24 23:44:00,
2013-02-24 18:49:00,51.4,40.8,29.87,WSW,256,0.0,0.0,67,0.00,,---,0.06,VWS V14.01,2013-02-24 23:49:00,
2013-02-24 18:54:00,50.6,40.4,29.87,WSW,256,0.0,0.0,68,0.00,,---,0.06,VWS V14.01,2013-02-24 23:54:00,
2013-02-24 18:59:00,50.0,40.6,29.87,WSW,256,0.0,0.0,70,0.00,,---,0.06,VWS V14.01,2013-02-24 23:59:00,
2013-02-24 19:00:00,49.9,40.5,29.87,WSW,256,0.0,0.0,70,0.00,,---,0.06,VWS V14.01,2013-02-25 00:00:00,
2013-02-24 19:04:00,49.5,40.5,29.87,WSW,256,0.0,0.0,71,0.00,,---,0.06,VWS V14.01,2013-02-25 00:04:00,
2013-02-24 19:09:00,49.0,40.4,29.88,WSW,256,0.0,0.0,72,0.00,,---,0.06,VWS V14.01,2013-02-25 00:09:00,
2013-02-24 19:14:00,48.5,39.9,29.88,WSW,256,0.0,0.0,72,0.00,,---,0.06,VWS V14.01,2013-02-25 00:14:00,
2013-02-24 19:19:00,48.0,39.8,29.88,WSW,256,0.0,0.0,73,0.00,,---,0.06,VWS V14.01,2013-02-25 00:19:00,
2013-02-24 19:24:00,47.6,39.7,29.88,WSW,256,0.0,0.0,74,0.00,,---,0.06,VWS V14.01,2013-02-25 00:24:00,
2013-02-24 19:29:00,47.0,39.8,29.89,WSW,256,0.0,0.0,76,0.00,,---,0.06,VWS V14.01,2013-02-25 00:29:00,
2013-02-24 19:30:00,46.8,40.0,29.89,WSW,256,0.0,0.0,77,0.00,,---,0.06,VWS V14.01,2013-02-25 00:30:00,
2013-02-24 19:34:00,46.5,39.7,29.89,WSW,256,0.0,0.0,77,0.00,,---,0.06,VWS V14.01,2013-02-25 00:34:00,
2013-02-24 19:39:00,45.9,39.8,29.89,WSW,256,0.0,0.0,79,0.00,,---,0.06,VWS V14.01,2013-02-25 00:39:00,
2013-02-24 19:44:00,45.2,39.4,29.89,WSW,256,0.0,0.0,80,0.00,,---,0.06,VWS V14.01,2013-02-25 00:44:00,
2013-02-24 19:49:00,44.9,39.1,29.90,WSW,256,0.0,0.0,80,0.00,,---,0.06,VWS V14.01,2013-02-25 00:49:00,
2013-02-24 19:54:00,44.6,38.8,29.90,WSW,256,0.0,0.0,80,0.00,,---,0.06,VWS V14.01,2013-02-25 00:54:00,
2013-02-24 19:59:00,44.2,38.8,29.90,WSW,256,0.0,0.0,81,0.00,,---,0.06,VWS V14.01,2013-02-25 00:59:00,
2013-02-24 20:00:00,44.1,38.7,29.90,WSW,256,0.0,0.0,81,0.00,,---,0.06,VWS V14.01,2013-02-25 01:00:00,
2013-02-24 20:04:00,43.8,38.4,29.91,WSW,256,0.0,0.0,81,0.00,,---,0.06,VWS V14.01,2013-02-25 01:04:00,
2013-02-24 20:09:00,43.3,38.2,29.92,WSW,256,0.0,0.0,82,0.00,,---,0.06,VWS V14.01,2013-02-25 01:09:00,
2013-02-24 20:14:00,43.1,38.3,29.92,WSW,256,0.0,0.0,83,0.00,,---,0.06,VWS V14.01,2013-02-25 01:14:00,
2013-02-24 20:19:00,42.8,38.0,29.92,WSW,256,0.0,0.0,83,0.00,,---,0.06,VWS V14.01,2013-02-25 01:19:00,
2013-02-24 20:24:00,42.4,37.6,29.92,WSW,256,0.0,0.0,83,0.00,,---,0.06,VWS V14.01,2013-02-25 01:24:00,
2013-02-24 20:29:00,42.1,37.6,29.92,WSW,256,0.0,0.0,84,0.00,,---,0.06,VWS V14.01,2013-02-25 01:29:00,
2013-02-24 20:30:00,42.0,37.5,29.92,WSW,256,0.0,0.0,84,0.00,,---,0.06,VWS V14.01,2013-02-25 01:30:00,
2013-02-24 20:34:00,41.9,37.4,29.92,WSW,256,0.0,0.0,84,0.00,,---,0.06,VWS V14.01,2013-02-25 01:34:00,
2013-02-24 20:39:00,41.5,37.3,29.93,WSW,256,0.0,0.0,85,0.00,,---,0.06,VWS V14.01,2013-02-25 01:39:00,
2013-02-24 20:44:00,41.1,36.9,29.93,WSW,256,0.0,0.0,85,0.00,,---,0.06,VWS V14.01,2013-02-25 01:44:00,
2013-02-24 20:49:00,40.8,36.9,29.93,WSW,256,0.0,0.0,86,0.00,,---,0.06,VWS V14.01,2013-02-25 01:49:00,
2013-02-24 20:54:00,40.5,36.7,29.93,WSW,256,0.0,0.0,86,0.00,,---,0.06,VWS V14.01,2013-02-25 01:54:00,
2013-02-24 20:59:00,40.1,36.3,29.93,WSW,256,0.0,0.0,86,0.00,,---,0.06,VWS V14.01,2013-02-25 01:59:00,
2013-02-24 21:00:00,40.1,36.5,29.93,WSW,256,0.0,0.0,87,0.00,,---,0.06,VWS V14.01,2013-02-25 02:00:00,
2013-02-24 21:04:00,39.8,36.2,29.93,WSW,256,0.0,0.0,87,0.00,,---,0.06,VWS V14.01,2013-02-25 02:04:00,
2013-02-24 21:09:00,39.6,36.1,29.93,WSW,256,0.0,0.0,87,0.00,,---,0.06,VWS V14.01,2013-02-25 02:09:00,
2013-02-24 21:14:00,39.3,36.0,29.93,WSW,256,0.0,0.0,88,0.00,,---,0.06,VWS V14.01,2013-02-25 02:14:00,
2013-02-24 21:19:00,39.0,36.0,29.94,WSW,256,0.0,0.0,89,0.00,,---,0.06,VWS V14.01,2013-02-25 02:19:00,
2013-02-24 21:24:00,38.8,35.8,29.93,WSW,256,0.0,0.0,89,0.00,,---,0.06,VWS V14.01,2013-02-25 02:24:00,
2013-02-24 21:29:00,38.7,35.7,29.94,WSW,256,0.0,0.0,89,0.00,,---,0.06,VWS V14.01,2013-02-25 02:29:00,
2013-02-24 21:30:00,38.6,35.7,29.94,WSW,256,0.0,0.0,89,0.00,,---,0.06,VWS V14.01,2013-02-25 02:30:00,
2013-02-24 21:34:00,38.4,35.5,29.94,WSW,256,0.0,0.0,89,0.00,,---,0.06,VWS V14.01,2013-02-25 02:34:00,
2013-02-24 21:39:00,38.2,35.5,29.94,WSW,256,0.0,0.0,90,0.00,,---,0.06,VWS V14.01,2013-02-25 02:39:00,
2013-02-24 21:44:00,38.0,35.3,29.94,WSW,256,0.0,1.0,90,0.00,,---,0.06,VWS V14.01,2013-02-25 02:44:00,
2013-02-24 21:49:00,37.8,35.1,29.93,WSW,256,0.0,1.0,90,0.00,,---,0.06,VWS V14.01,2013-02-25 02:49:00,
2013-02-24 21:54:00,37.6,35.2,29.94,WNW,296,0.0,1.0,91,0.00,,---,0.06,VWS V14.01,2013-02-25 02:54:00,
2013-02-24 21:59:00,37.6,35.2,29.94,WNW,296,0.0,1.0,91,0.00,,---,0.06,VWS V14.01,2013-02-25 02:59:00,
2013-02-24 22:00:00,37.6,35.2,29.94,WNW,296,0.0,1.0,91,0.00,,---,0.06,VWS V14.01,2013-02-25 03:00:00,
2013-02-24 22:04:00,37.6,35.2,29.94,WNW,296,0.0,0.0,91,0.00,,---,0.06,VWS V14.01,2013-02-25 03:04:00,
2013-02-24 22:09:00,37.6,34.9,29.94,WNW,296,0.0,1.0,90,0.00,,---,0.06,VWS V14.01,2013-02-25 03:09:00,
2013-02-24 22:14:00,37.7,35.0,29.94,WNW,296,1.0,1.0,90,0.00,,---,0.06,VWS V14.01,2013-02-25 03:14:00,
2013-02-24 22:19:00,37.7,35.0,29.94,WNW,296,0.0,1.0,90,0.00,,---,0.06,VWS V14.01,2013-02-25 03:19:00,
2013-02-24 22:24:00,37.7,34.8,29.94,WNW,296,0.0,1.0,89,0.00,,---,0.06,VWS V14.01,2013-02-25 03:24:00,
2013-02-24 22:29:00,37.8,34.9,29.94,WNW,296,0.0,1.0,89,0.00,,---,0.06,VWS V14.01,2013-02-25 03:29:00,
2013-02-24 22:30:00,37.8,34.8,29.94,WNW,296,0.0,1.0,89,0.00,,---,0.06,VWS V14.01,2013-02-25 03:30:00,
2013-02-24 22:34:00,37.8,34.9,29.95,WNW,296,0.0,0.0,89,0.00,,---,0.06,VWS V14.01,2013-02-25 03:34:00,
2013-02-24 22:39:00,37.9,35.0,29.95,WNW,296,0.0,1.0,89,0.00,,---,0.06,VWS V14.01,2013-02-25 03:39:00,
2013-02-24 22:44:00,37.9,34.7,29.95,WNW,296,0.0,1.0,88,0.00,,---,0.06,VWS V14.01,2013-02-25 03:44:00,
2013-02-24 22:49:00,37.9,35.0,29.95,WNW,296,0.0,1.0,89,0.00,,---,0.06,VWS V14.01,2013-02-25 03:49:00,
2013-02-24 22:54:00,37.9,35.0,29.95,WNW,296,0.0,1.0,89,0.00,,---,0.06,VWS V14.01,2013-02-25 03:54:00,
2013-02-24 22:59:00,37.8,34.9,29.95,WNW,296,0.0,1.0,89,0.00,,---,0.06,VWS V14.01,2013-02-25 03:59:00,
2013-02-24 23:00:00,37.8,34.8,29.95,WNW,296,0.0,1.0,89,0.00,,---,0.06,VWS V14.01,2013-02-25 04:00:00,
2013-02-24 23:04:00,37.8,34.9,29.95,WNW,296,0.0,0.0,89,0.00,,---,0.06,VWS V14.01,2013-02-25 04:04:00,
2013-02-24 23:09:00,37.7,34.8,29.95,WNW,296,0.0,0.0,89,0.00,,---,0.06,VWS V14.01,2013-02-25 04:09:00,
2013-02-24 23:14:00,37.6,34.7,29.95,WNW,296,0.0,0.0,89,0.00,,---,0.06,VWS V14.01,2013-02-25 04:14:00,
2013-02-24 23:19:00,37.5,34.6,29.95,WNW,296,0.0,0.0,89,0.00,,---,0.06,VWS V14.01,2013-02-25 04:19:00,
2013-02-24 23:24:00,37.4,34.5,29.95,WNW,296,0.0,0.0,89,0.00,,---,0.06,VWS V14.01,2013-02-25 04:24:00,
2013-02-24 23:29:00,37.3,34.4,29.95,WNW,296,0.0,0.0,89,0.00,,---,0.06,VWS V14.01,2013-02-25 04:29:00,
2013-02-24 23:30:00,37.2,34.3,29.95,WNW,296,0.0,0.0,89,0.00,,---,0.06,VWS V14.01,2013-02-25 04:30:00,
2013-02-24 23:34:00,37.1,34.2,29.96,WNW,296,0.0,0.0,89,0.00,,---,0.06,VWS V14.01,2013-02-25 04:34:00,
2013-02-24 23:39:00,37.0,34.1,29.96,WNW,296,0.0,0.0,89,0.00,,---,0.06,VWS V14.01,2013-02-25 04:39:00,
2013-02-24 23:44:00,36.8,33.9,29.96,WNW,296,0.0,0.0,89,0.00,,---,0.06,VWS V14.01,2013-02-25 04:44:00,
2013-02-24 23:49:00,36.7,33.8,29.97,WNW,296,0.0,0.0,89,0.00,,---,0.06,VWS V14.01,2013-02-25 04:49:00,
2013-02-24 23:54:00,36.6,33.7,29.96,WNW,296,0.0,0.0,89,0.00,,---,0.06,VWS V14.01,2013-02-25 04:54:00,
2013-02-24 23:59:00,36.4,33.5,29.97,WNW,296,0.0,0.0,89,0.00,,---,0.06,VWS V14.01,2013-02-25 04:59:00,